Current Version              Previous Version:    01  02  03  04  05  06  07  08  09  10  11  12  13  14  15  16  17  18  19  20  21  22  23  24  25  26  27  28  29  30  
   31  32  33  34  35  36  37  38  39  40  41  42  43  44  45  46  47  48  49  50  51  52  53  54  55  56  57  58  59  60  

[Printable]
118
ASUS44 KLUB 210110
RWRTX
WEST TEXAS WEATHER ROUNDUP
NATIONAL WEATHER SERVICE LUBBOCK TX
800 PM CDT WED AUG 20 2014

NOTE: "FAIR" INDICATES FEW OR NO CLOUDS BELOW 12,000 FEET WITH NO
SIGNIFICANT WEATHER AND/OR OBSTRUCTIONS TO VISIBILITY.

TXZ004-006>008-010-012-014-016-OKZ002-210200-
TEXAS PANHANDLE/OKLAHOMA PANHANDLE

CITY           SKY/WX    TMP DP  RH WIND       PRES   REMARKS
AMARILLO       MOCLDY    88  58  36 S17       29.89F
BORGER         CLOUDY    93  57  29 S18G28    29.84F
CANADIAN       CLEAR     91  61  36 S12G21    29.81S
DALHART        PTCLDY    88  56  33 S23G36    29.89S
DUMAS          MOCLDY    86  59  40 S15G21    29.87S
GUYMON         PTCLDY    90  58  33 S13G24    29.80R
HEREFORD       CLOUDY    83  66  56 S12       29.92S
PAMPA          MOCLDY    88  56  32 S15       29.88S
PERRYTON       PTCLDY    90  57  32 S17G24    29.83S
$$

TXZ026-029-035-045-048-210200-
SOUTHERN PANHANDLE/SOUTH PLAINS/ROLLING PLAINS

CITY           SKY/WX    TMP DP  RH WIND       PRES   REMARKS
CHILDRESS      CLEAR     94  61  33 S17G24    29.83R
SEMINOLE       MOCLDY    87  61  41 S21G31    29.93R
LUBBOCK        MOCLDY    83  64  52 SE17      29.91R
PLAINVIEW      CLEAR     87  62  42 S13       29.91R
SNYDER         PTCLDY    90  64  42 S21G26    29.90R
$$

TXZ052-054-060>062-072-078-127-140-154-169-210200-
PERMIAN BASIN/CONCHO VALLEY/BIG COUNTRY/EDWARDS PLATEAU

CITY           SKY/WX    TMP DP  RH WIND       PRES   REMARKS
ABILENE        CLEAR     91  58  32 S18G28    29.90R
BIG SPRING     PTCLDY    88  62  41 S21G30    29.92R
BRADY          CLEAR     90  61  37 SE8       29.93R
BROWNWOOD      CLEAR     91  57  31 S10G18    29.90R
JUNCTION       CLEAR     88  63  43 S8        29.93R
MIDLAND        CLOUDY    78  70  76 SE6       29.92F
ODESSA         CLOUDY    78  67  68 SE7       29.93S
SAN ANGELO     CLEAR     90  60  36 S13G21    29.90R
SONORA         CLEAR     88  59  37 S9G16     29.98R
SWEETWATER     CLEAR     89  61  40 SE18G25   29.94R
WINK           CLOUDY    84  62  47 S20G29    29.89R
$$

TXZ055-058-074-075-080-082-210200-
FAR WEST/SOUTHWEST MOUNTAINS/TRANS PECOS

CITY           SKY/WX    TMP DP  RH WIND       PRES   REMARKS
ALPINE         CLOUDY    72  64  75 S7        30.11R
DRYDEN           N/A     90  62  39 SE12      29.91S
EL PASO        PTCLDY    90  48  23 W8        29.93S
FORT STOCKTON  CLOUDY    76  63  64 S17       29.93R
GUADALUPE PASS CLEAR     82  49  31 SW15      30.07R
MARFA          CLOUDY    75  57  53 SE17G28   30.10R THUNDER
PECOS          CLOUDY    84  60  44 S13G21    29.86F
PRESIDIO       FAIR      90  60  37 SE16      29.90R THUNDER
$$

TXZ014-016-019-021>030-083-210200
TEXAS TECH WEST TEXAS MESONET/TEXAS PANHANDLE/NORTHERN SOUTH PLAINS

CITY           SKY/WX    TMP DP  RH WIND       PRES   REMARKS
ABERNATHY 5ENE   N/A     82  62  50 SE17      29.93R
AMARILLO 9NNE    N/A     87  60  40 SW10      29.86S
AMARILLO 7SSE    N/A     88  60  39 S14       29.90S
AMHERST 1NE      N/A     84  61  45 SE14      29.92R
BOOTLEG 11WNW    N/A     84  57  39 SE15      29.96S
CANADIAN 6E      N/A     90  62  38 S14       29.82R
CAPROCK CYN SP   N/A     91  57  31 S13       29.86R
CHILDRESS 2NNE   N/A     94  59  31 SE17      29.82R
CLARENDON 2WSW   N/A     89  54  30 S10       29.86S
CLAUDE 12SW      N/A     88  59  37 S12       29.90S
DIMMITT 2NE      N/A     83  60  44 S12       29.93S
FLOYDADA 2NNE    N/A     85  61  45 S17       29.91R
FRIONA 2NE       N/A     79  64  60 SE8       29.94S
GOODLETT 3W      N/A     94  59  30 S15       29.80S
HART 3N          N/A     79  64  59 SE6       29.93R
HEREFORD 2NW     N/A     81  63  54 S8        29.92S
MCLEAN 1E        N/A     88  58  36 SE13      29.86S
MEMPHIS 1NE      N/A     93  58  30 SE9       29.82R
MULESHOE 2SSW    N/A     76  69  78 NE6       29.92R
OLTON 6S         N/A     85  61  43 SE15      29.92R
PALO DURO SP     N/A     89  60  38 S10       29.90S
PAMPA 2E         N/A     88  58  35 SE14      29.88S
PLAINVIEW 1S     N/A     87  61  41 S15       29.91R
SILVERTON 7ESE   N/A     88  59  37 S13       29.90R
TULIA 2ENE       N/A     87  60  40 S14       29.91R
TURKEY 2WSW      N/A     92  59  33 S12       29.84S
UMBARGER 3NNE    N/A     84  58  41 S12       29.93S
$$

TXZ033>036-039>041-045>048-210200
TEXAS TECH WEST TEXAS MESONET/SOUTH PLAINS

CITY           SKY/WX    TMP DP  RH WIND       PRES   REMARKS
AIKEN 3WSW       N/A     86  63  46 S14       29.93R
ANTON 6SSW       N/A     86  63  46 SE18      29.91R
BROWNFIELD 2S    N/A     84  61  44 SE17      29.92R
DENVR CTY 7WNW   N/A     89  49  25 S10       29.90S
GAIL 2ESE        N/A     89  62  39 SE13      29.87R
LAMESA 2SE       N/A     79  68  69 SE13      29.91F
LEVELLAND 4S     N/A     85  60  42 SE16      29.91R
LUBBOCK 3WNW     N/A     85  63  46 SE14      29.92R
MORTON 1ENE      N/A     89  56  32 SE13      29.91R
ODONNELL 1N      N/A     73  65  74 S18       29.92R
PLAINS 3N        N/A     88  58  36 SE18      29.91R
RALLS 1SE        N/A     77  65  65 S13       29.93R
REESE CENTER     N/A     86  61  43 SE17      29.91R
SEAGRAVES 1SW    N/A     89  58  35 S17       29.90R
SEMINOLE 2NNE    N/A     88  58  36 S20       29.90R
SLATON 2NE       N/A     78  66  67 E8        29.91S
SNYDER 3E        N/A     89  63  41 SE18G28   29.89R
SUNDOWN 8SW      N/A     86  61  42 SE17      29.91R
TAHOKA 3NNE      N/A     79  64  59 SE13      29.91R
WOLFFORTH 6SSW   N/A     84  62  47 S15       29.92R
$$

TXZ031-032-036>038-042>044-210200-
TEXAS TECH WEST TEXAS MESONET/ROLLING PLAINS

CITY           SKY/WX    TMP DP  RH WIND       PRES   REMARKS
ASPERMONT 3NE    N/A     91  64  39 S13       29.85R
FLUVANNA 3WNW    N/A     89  59  36 SE16      29.89R
GRAHAM 5SSW    RAIN      72  65  79 W3        29.91R
GUTHRIE 10WSW    N/A     92  64  38 SE18      29.84R
HASKELL 1NW      N/A     92  57  30 S14       29.85R
JAYTON 1SSE      N/A     91  63  38 SE16      29.86R
KNOX CITY 3NW    N/A     94  57  29 S17       29.84R
LK A HENRY 1NW   N/A     91  62  38 SE13      29.85S
NORTHFIELD 1S    N/A     94  59  30 S15       29.83R
ODELL 4ENE       N/A     95  58  28 SE16      29.82R
PADUCAH 10SW     N/A     91  63  38 S15       29.83R
POST 1NE         N/A     86  62  44 SW18      29.88R
RRING SPRGS 3N   N/A     91  62  38 S13       29.87R
SEYMOUR 3NW      N/A     94  53  24 S15       29.83R
SPUR 1W          N/A     91  58  32 S13       29.85S
WEINERT 2NNE     N/A     92  63  36 S16       29.85R
WHITE RVR 6NE    N/A     81  67  61 W15       29.89R
$$

TXZ052-054-060>062-072-078-127-140-154-169-210200-
TEXAS TECH WEST TEXAS MESONET/PERMIAN BASIN/
CONCHO VALLEY/BIG COUNTRY/EDWARDS PLATEAU

CITY           SKY/WX    TMP DP  RH WIND       PRES   REMARKS
COYANOSA 2N      N/A     83  63  50 S10       29.89S
JUNCTION 1SSW    N/A     88  65  45 S3        29.93R
MERTZON 3NNE     N/A     88  63  43 S12       29.93R
SAN ANGELO 7NW   N/A     87  59  38 SE10      29.90S
STRLNG CT 4WSW   N/A     89  65  45 S15       29.91R
ST LAWRNCE 5SW   N/A     82  64  56 SW8       29.93R
SWEETWATR 11SW   N/A     87  64  46 SE13      29.93R
WALL 1E          N/A     84  61  45 SE12      29.92R
$$

TXZ055-058-074-075-080-082-210200-
TEXAS TECH WEST TEXAS MESONET/FAR WEST/SOUTHWEST MOUNTAINS/TRANS PECOS

CITY           SKY/WX    TMP DP  RH WIND       PRES   REMARKS
PRSMN GAP BBNP   N/A     78  66  66 NE7       29.95S
GUADLPE MTN NP   N/A     78  47  33 SW10      30.08S
$$



756
ASUS44 KEWX 210110
RWRTX
SOUTH TEXAS REGIONAL WEATHER ROUNDUP
NATIONAL WEATHER SERVICE AUSTIN/SAN ANTONIO TX
800 PM CDT WED AUG 20 2014

NOTE: "FAIR" INDICATED FEW OR NO CLOUDS BELOW 12,000 FEET WITH NO
SIGNIFICANT WEATHER AND/OR OBSTRUCTIONS TO VISIBILITY.

* - THESE STATIONS ARE NOT NWS OR FAA STATIONS...AND ARE NOT SUBJECT
    TO NWS AND FAA QUALITY CONTROL.

TXZ171-172-183>190-210200-
TEXAS HILL COUNTRY AND EDWARDS PLATEAU

CITY           SKY/WX    TMP DP  RH WIND       PRES   REMARKS
JUNCTION       CLEAR     88  63  43 S8        29.93R
*LLANO         PTCLDY    93  61  33 S8G16     29.92R HX  93
BURNET         CLEAR     93  62  35 SE9G18    29.92S HX  93
*HORSESHOE BAY PTCLDY    94  59  31 SE7       29.89R HX  93
*KERRVILLE     CLEAR     89  65  45 SE3       29.93R HX  90
*FREDERICKSBRG CLEAR     89  60  37 S5        29.94R
*ROCKSPRINGS   CLEAR     86  63  45 SE6       29.99R
*BOERNE STAGE  CLEAR     88  63  42 SE15      29.94R
*CASTROVILLE   CLEAR     92  67  42 SE22      29.90R HX  95
HONDO          MOCLDY    92  68  45 SE18G31   29.89R HX  96
*UVALDE        CLEAR     96  64  34 SE9       29.87R HX  97
DEL RIO        PTCLDY    96  62  32 SE13      29.84R HX  97
LAUGHLIN AFB   CLEAR     94  64  36 SE12      29.86R HX  95
CARRIZO SPRGS  PTCLDY    97  63  32 SE15G21   29.81R HX  98
$$

TXZ173-191>194-202-209-217>225-228-210200-
CENTRAL AND SOUTH CENTRAL TEXAS

CITY           SKY/WX    TMP DP  RH WIND       PRES   REMARKS
GEORGETOWN     CLEAR     97  63  32 S12G21    29.87S HX  98
AUSTIN/BERGSTM PTCLDY    93  66  40 S18G26    29.88R HX  96
AUSTIN/MABRY   CLEAR     94  65  38 S12G22    29.89R HX  96
*AUSTIN/EXEC   CLEAR     93  66  40 S12G21    29.89R HX  96
*LAGO VISTA    CLEAR     92  60  33 SE8       29.92R HX  92
SAN MARCOS     CLEAR     91  66  43 SE20G29   29.91R HX  94
NEW BRAUNFELS  CLEAR     91  68  46 SE22G29   29.88R HX  95
RANDOLPH AFB   CLEAR     92  68  45 S21       29.90R HX  95
PT SAN ANTONIO CLEAR     92  71  50 SE21      29.88R HX  97
SAN ANTONIO    PTCLDY    92  68  45 SE22G28   29.90R HX  96
STINSON FIELD  CLEAR     91  70  49 SE15G22   29.87R HX  96
*PLEASANTON    PTCLDY    91  70  49 E14G20    29.88R HX  96
*LA GRANGE     CLOUDY    91  74  57 S17G23    29.90R HX 101
*GIDDINGS      CLOUDY    91  67  45 S8G18     29.95R HX  94
*GONZALES      CLOUDY    90  73  56 S13G25    29.91R HX  98
$$

TXZ163>164-176>182-195>201-210>213-226-227-235-210200-
SOUTHEAST TEXAS

CITY           SKY/WX    TMP DP  RH WIND       PRES   REMARKS
COLLEGE STN    CLOUDY    83  72  69 E13       29.93S
*BRYAN         CLOUDY    83  72  69 SE13      29.93S
*CALDWELL      CLOUDY    84  72  65 E7        29.96R
*CROCKETT        N/A    N/A N/A N/A MISG        N/A
*BRENHAM       CLOUDY    86  76  71 E7        29.94R HX  95
HUNTSVILLE     MOCLDY    82  70  66 VRB5      29.97S
CONROE         CLOUDY    77  73  87 VRB6      29.99R
HOUSTON BUSH   MOCLDY    84  76  76 SE8       29.97R HX  93
HOUSTON HOBBY  MOCLDY    85  74  69 S10G16    29.97R HX  92
*HOUSTON SW AP PTCLDY    85  73  67 MISG      29.98R HX  91
PEARLAND       PTCLDY    87  74  64 S8        29.99R HX  95
HOUSTON HOOKS  PTCLDY    84  76  76 SE6       29.97R HX  93
ELLINGTON FLD  NOT AVBL
SUGAR LAND     PTCLDY    87  75  67 S15       29.97R HX  96
*HOUSTON EXEC  PTCLDY    86  75  70 SE16      29.97R HX  95
*CLEVELAND MUN PTCLDY    77  75  95 CALM      30.00F
*WHARTON       CLEAR     85  74  68 SE15G23   29.97R HX  93
$$

TXZ214>216-236>238-210200-
THE UPPER TEXAS COAST

CITY           SKY/WX    TMP DP  RH WIND       PRES   REMARKS
*ORANGE        MOCLDY    85  75  73 SE6       30.03S HX  93
PORT ARTHUR    MOCLDY    85  76  74 S10       30.00S HX  94
GALVESTON      PTCLDY    86  79  79 SE15      30.00R HX  99
ANGLETON       PTCLDY    85  76  74 S13       29.98R HX  94
*BAY CITY      CLEAR     87  77  72 SE10G16   29.97R HX  99
PALACIOS       MOCLDY    87  76  69 SE16      29.96R HX  97
$$

TXZ229>234-239>247-210200-
TEXAS COASTAL BEND AND RIO GRANDE PLAINS

CITY           SKY/WX    TMP DP  RH WIND       PRES   REMARKS
VICTORIA       CLEAR     88  75  65 SE20      29.95R HX  97
*BEEVILLE      CLEAR     87  73  63 SE20G31   29.91R HX  94
ROCKPORT       LGT RAIN  86  77  74 SE17      29.93R HX  97
*PORT ARANSAS  CLEAR     84  78  82 SE9       29.93R HX  94
*PORT LAVACA   PTCLDY    85  76  74 SE14G21   29.95R HX  95
*INGLESIDE     CLEAR     87  76  71 SE17G25   29.92S HX  97
CORPUS CHRISTI PTCLDY    86  76  71 SE26G32   29.91R HX  96
CORPUS NAS     MOCLDY    85  79  82 SE22G28   29.92R HX  98
*ROBSTOWN      NOT AVBL
ALICE          CLEAR     87  74  64 SE23G32   29.88R HX  95
KINGSVILLE NAS MOCLDY    87  77  72 SE21G30   29.90R HX  99
COTULLA        PTCLDY    95  69  42 SE18G32   29.84R HX 100
*FAITH RANCH   PTCLDY    99  63  30 S13       29.82R HX 100
LAREDO         PTCLDY    98  69  38 SE23      29.85R HX 104
$$

TXZ248>255-210200-
DEEP SOUTH TEXAS

CITY           SKY/WX    TMP DP  RH WIND       PRES   REMARKS
BROWNSVILLE    PTCLDY    86  78  77 SE20G28   29.91R HX  98
PORT ISABEL    PTCLDY    87  78  74 SE21G26   29.90S HX 100
*SOUTH PADRE     N/A     82  79  89 SE9       29.91S HX  93
HARLINGEN      CLEAR     87  75  67 SE24G30   29.88R HX  96
*HEBBRONVILLE  CLEAR     93  65  39 SE21G28   29.88R HX  95
MCALLEN        CLEAR     89  73  59 SE23G30   29.87R HX  97
*WESLACO       CLEAR     89  71  56 SE18G30   29.88R HX  95
FALFURRIAS     CLEAR     94  73  50 SE17G25   29.87R HX 103
EDINBURG       CLEAR     92  71  50 SE22      29.87R HX  98
*ZAPATA        CLOUDY    93  69  44 SE20G29   29.83R HX  98
$$

TXZ213>215-236>238-242>244-246-247-251-254-255-210200-
CMAN STATIONS

STATION/POSITION TIME  TEMP    WIND        PRES    WAVE
                       AIR SEA DIR/SP/G            HT/PER
                 (UTC) (F)     (DEG/KT/KT) (MB)    (FT/S)
SABINE PASS      0100   85 87  180/ 12/ 16 1016.4
SEA RIM ST PARK  0000   87     160/ 11/ 13 1016.7
NORTH JETTY/GLS  0100   86 88  180/ 16/ 19   N/A
EAGLE POINT      0100   86 88  180/ 16/ 18 1015.5
MORGANS POINT    0100   86     150/  7/ 13 1015.4
PORT O`CONNOR    0100          140/ 18/ 20   N/A
PORT ARANSAS     0000   84 86  130/ 17/ 19 1013.9
MALAQUITE BEACH  0100   82 83  120/ 13/ 15 1012.7
BAFFIN BAY       0100   84 87  130/ 14/ 19 1012.8
PORT ISABEL      0100   84 81  140/  7/ 10 1013.2
$$

GMZ080-GMZ150>470-210200-
OFFSHORE BUOY REPORTS

STATION/POSITION TIME  TEMP    WIND        PRES    WAVE
                       AIR SEA DIR/SP/G            HT/PER
                 (UTC) (F)     (DEG/KT/KT) (MB)    (FT/S)
90 E PT ARANSAS  0100   86 85  140/ 12/ 14 1015.3    3/ 6
35 NE PT MANSFLD 0100   85 86  150/ 16/ 19 1012.7    4/ 6
200 E PT ISABEL  0100   86 86  160/ 14/ 17 1015.3    3/ 6
$$